Regional Weather Roundup
Issued by NWS

Home | Current Version | Previous Version | Text Only | Print | Product List | Glossary Off
Versions: 1 2 3 4 5 6 7 8 9 10 11 12 13 14 15 16 17 18 19 20 21 22 23 24 25 26 27 28 29 30 31 32 33 34 35 36 37 38 39 40 41 42 43 44 45 46 47 48 49 50

000
ASUS43 KDTX 040310
RWRMI
MICHIGAN HOURLY REGIONAL WEATHER ROUNDUP
NATIONAL WEATHER SERVICE DETROIT/PONTIAC MI
1000 PM EST TUE MAR 03 2015

NOTE: "FAIR" INDICATES FEW OR NO CLOUDS BELOW 12,000 FEET WITH NO
SIGNIFICANT WEATHER AND/OR OBSTRUCTION TO VISIBILITY.

MIZ047>049-052>055-059>063-066>070-074>076-081>083-040400-
SOUTHEAST LOWER MICHIGAN

CITY           SKY/WX    TMP DP  RH WIND       PRES   REMARKS
ADRIAN         CLOUDY    35  28  75 NW13      29.75R WCI  26
ALMA           CLOUDY    30  25  81 W14G21    29.71R WCI  19
ANN ARBOR      CLOUDY    35  29  78 W15       29.71R WCI  25
BAD AXE        CLOUDY    31  28  91 W16G24    29.63R WCI  20
CARO           CLOUDY    32  27  84 W14       29.66R WCI  22
DETROIT CITY   CLOUDY    37  28  70 W13G21    29.70R WCI  29
DETROIT        CLOUDY    36  29  75 W13G24    29.72R WCI  27
FLINT          CLOUDY    34  27  75 W20       29.69R WCI  23
GROSSE ILE     CLOUDY    36  30  80 W10G16    29.70R WCI  28
HILLSDALE      CLOUDY    34  30  85 W18G25    29.73R WCI  23
HOWELL         CLOUDY    32  28  84 W18       29.70R WCI  20

CITY           SKY/WX    TMP DP  RH WIND       PRES   REMARKS
JACKSON        CLOUDY    33  28  81 W13G23    29.72R WCI  24
LAMBERTVILLE   CLOUDY    36  32  87 W10G18    29.75R WCI  28
LANSING        CLOUDY    32  25  75 W18G28    29.73R WCI  20
LAPEER         CLOUDY    32  28  83 W15       29.66R WCI  22
MASON          CLOUDY    32  27  80 W15G21    29.71R WCI  22
MONROE         CLOUDY    36  30  80 W14G21    29.72R WCI  27
MT. CLEMENS    CLOUDY    35  29  76 W13       29.67R WCI  27
PONTIAC        CLOUDY    32  27  81 W22G31    29.67R WCI  19
PORT HOPE        N/A     31  26  82 W9G20     29.60R WCI  23
PORT HURON     CLOUDY    34  30  86 W7        29.68R WCI  28
TRI CITIES     CLOUDY    32  24  72 W18G30    29.68R WCI  20
TROY           CLOUDY    36  30  78 W15       29.71R WCI  27
SAGINAW HB     CLOUDY    32  27  80 W21G29    29.68R WCI  20
$$
MIZ043>046-050>051-056>058-064>065-071>073-077>080-040400-
SOUTHWEST LOWER MICHIGAN

CITY           SKY/WX    TMP DP  RH WIND       PRES   REMARKS
BATTLE CREEK   CLOUDY    34  28  79 W12       29.74R WCI  25
BENTON HARBOR  CLOUDY    32  30  92 W13       29.80R WCI  22
BIG RAPIDS     CLOUDY    28  26  91 W10       29.70R WCI  19
COLDWATER      CLOUDY    33  29  83 W13G22    29.75R WCI  24
FREMONT        CLOUDY    28  23  80 W10       29.74R WCI  19
HOLLAND        CLOUDY    32  24  72 W12       29.78R WCI  23
GRAND RAPIDS   CLOUDY    30  24  78 W13G25    29.74R WCI  20
IONIA          CLOUDY    32  26  78 W22       29.72R WCI  19
KALAMAZOO      CLOUDY    34  28  79 W13       29.76R WCI  25
LUDINGTON      MOCLDY    31  23  72 W7        29.74R WCI  24
MARSHALL       CLOUDY    32  28  85 W13G18    29.73R WCI  22
MOUNT PLEASANT CLOUDY    29  24  80 W10G17    29.69R WCI  20
MUSKEGON       CLOUDY    31  22  69 NW10G22   29.76R WCI  22
SOUTH HAVEN    CLOUDY    33  28  81 NW9       29.78R WCI  25
$$
MIZ016>042-040400-
NORTHERN LOWER MICHIGAN

CITY           SKY/WX    TMP DP  RH WIND       PRES   REMARKS
ALPENA         CLOUDY    28  22  78 W15G26    29.59R WCI  16
BEAVER ISLAND  CLOUDY    24  20  85 SW12      29.59R WCI  13
BELLAIRE       CLOUDY    25  21  84 SW3       29.65R
CADILLAC       MOCLDY    25  21  86 W8        29.65R WCI  16
CHARLEVOIX     MOCLDY    25  20  83 W10G16    29.65R WCI  15
FRANKFORT      CLOUDY    29  24  79 W12G22    29.69R WCI  20
GAYLORD        CLEAR     22  19  89 W13       29.58R WCI  10
GRAYLING       CLOUDY    26  23  89 W12       29.62R WCI  15
HARBOR SPRINGS PTCLDY    22  18  85 W7        29.60R WCI  13
HOUGHTON LAKE  MOCLDY    25  19  78 W14       29.64R WCI  13
MANISTEE       PTCLDY    28  19  69 W15       29.71R WCI  17
OSCODA         CLOUDY    27  26  94 SW9       29.60R WCI  18
PELLSTON       PTCLDY    25  17  72 W10       29.59R WCI  15
ROGERS CITY    CLOUDY    27  25  90 W10G21    29.57R WCI  17
TRAVERSE CITY  MOCLDY    26  21  81 SW8       29.66R WCI  18
$$
MIZ007>008-015-040400-
EASTERN UPPER MICHIGAN

CITY           SKY/WX    TMP DP  RH WIND       PRES   REMARKS
KINROSS        MOCLDY    19  19 100 W9        29.53R WCI   9
MACKINAC ISLAN PTCLDY    22  21  98 W16       29.55R WCI   8
NEWBERRY       FLURRIES  22  20  95 SW10      29.55R WCI  11
S. S. MARIE    FLURRIES  21  17  84 W7        29.51F WCI  12
MUNISING         N/A     27  18  69 NW22G33   29.60R WCI  13
$$
MIZ004>006-011>014-085-040400-
CENTRAL UPPER MICHIGAN

CITY           SKY/WX    TMP DP  RH WIND       PRES   REMARKS
MANISTIQUE     MOCLDY    24  20  86 W9        29.58R WCI  14
ESCANABA       CLOUDY    23  19  86 SW6       29.64R WCI  16
MENOMINEE      PTCLDY    28  18  64 W5        29.68R WCI  23
SAWYER-GWINN   LGT SNOW  23  16  74 NW23      29.58R WCI   7
$$
MIZ001>003-009>011-084-040400-
WESTERN UPPER MICHIGAN

CITY           SKY/WX    TMP DP  RH WIND       PRES   REMARKS
IRON MOUNTAIN  FLURRIES  23  15  71 NW18      29.61R WCI   9
HOUGHTON       MIX PCPN  14   6  70 NW26G39   29.61R WCI  -6
COPPER HARBOR    N/A     19  10  68 N20G32    29.60R WCI   3
IRONWOOD       CLOUDY    18   7  62 W21G26    29.69R WCI   1
$$

ABBREVIATIONS USED IN REMARKS
   TC - TEMPERATURE IN CELSIUS
  WCI - WIND CHILL INDEX
   HX - HEAT INDEX
  VSB - VISIBILITY



USA.gov is the U.S. government's official web portal to all federal, state and local government web resources and services.